SAS9141 LFBO-EKCH

Flight info

Callsign SAS9141
Flight time 2h 18m
Altitude 39000
Route FISTO DCT PERIG DCT ADABI DCT BOKNO UN858 VANAD UN874 ARSAF DCT EGOZE DCT CMB DCT VEKIN DCT ADUTO N873 JUIST DCT DOSUR P729 TUDLO
Aircraft A320/M-SDE3FGIJ1RWXY/ALB1

Departure

Time 2026-04-22 17:39
Airport Toulouse-Blagnac Airport (LFBO)

Arrival

Time 2026-04-22 19:58
Airport Copenhagen Kastrup Airport (EKCH)
Time Latitude Longitude Altitude Speed Heading
2026-04-22 17:17 43.63125 1.35097 484 ft 0 kts 68°
2026-04-22 17:29 43.63125 1.35088 495 ft 3 kts 30°
2026-04-22 17:29 43.63112 1.35074 482 ft 2 kts 52°
2026-04-22 17:29 43.63103 1.35053 491 ft 3 kts 85°
2026-04-22 17:30 43.63106 1.35028 491 ft 3 kts 122°
2026-04-22 17:30 43.63118 1.35008 491 ft 2 kts 144°
2026-04-22 17:30 43.63125 1.35001 489 ft 1 kts 147°
2026-04-22 17:30 43.63126 1.35000 488 ft 0 kts 147°
2026-04-22 17:32 43.63125 1.35001 489 ft 1 kts 147°
2026-04-22 17:33 43.63093 1.35033 490 ft 10 kts 144°
2026-04-22 17:33 43.63033 1.35093 487 ft 11 kts 143°
2026-04-22 17:33 43.62971 1.35152 489 ft 11 kts 143°
2026-04-22 17:33 43.62954 1.35237 493 ft 9 kts 86°
2026-04-22 17:34 43.62957 1.35333 495 ft 11 kts 89°
2026-04-22 17:34 43.62958 1.35447 492 ft 13 kts 89°
2026-04-22 17:34 43.62969 1.35577 495 ft 14 kts 85°
2026-04-22 17:34 43.62992 1.35696 495 ft 13 kts 45°
2026-04-22 17:35 43.63072 1.35675 489 ft 13 kts 323°
2026-04-22 17:35 43.63146 1.35599 490 ft 14 kts 323°
2026-04-22 17:35 43.63225 1.35518 495 ft 15 kts 323°
2026-04-22 17:35 43.63307 1.35429 494 ft 16 kts 322°
2026-04-22 17:36 43.63397 1.35338 495 ft 17 kts 324°
2026-04-22 17:36 43.63491 1.35239 493 ft 17 kts 322°
2026-04-22 17:36 43.63589 1.35134 493 ft 18 kts 325°
2026-04-22 17:36 43.63694 1.35026 495 ft 19 kts 322°
2026-04-22 17:37 43.63801 1.34913 495 ft 18 kts 323°
2026-04-22 17:37 43.63900 1.34810 488 ft 18 kts 323°
2026-04-22 17:37 43.64005 1.34704 494 ft 19 kts 323°
2026-04-22 17:37 43.64114 1.34591 493 ft 20 kts 322°
2026-04-22 17:38 43.64228 1.34472 490 ft 19 kts 325°
2026-04-22 17:38 43.64334 1.34486 492 ft 16 kts 49°
2026-04-22 17:38 43.64384 1.34613 495 ft 11 kts 96°
2026-04-22 17:38 43.64355 1.34655 495 ft 0 kts 142°
2026-04-22 17:39 43.64301 1.34711 493 ft 41 kts 143°
2026-04-22 17:39 43.63838 1.35190 492 ft 119 kts 142°
2026-04-22 17:39 43.62125 1.36980 1618 ft 166 kts 144°
2026-04-22 17:40 43.61188 1.37952 2509 ft 176 kts 145°
2026-04-22 17:40 43.60147 1.39049 3136 ft 202 kts 144°
2026-04-22 17:40 43.58972 1.40314 3835 ft 227 kts 144°
2026-04-22 17:40 43.57664 1.41731 4565 ft 252 kts 144°
2026-04-22 17:41 43.56142 1.43110 5381 ft 270 kts 161°
2026-04-22 17:41 43.54274 1.43418 6464 ft 275 kts 188°
2026-04-22 17:41 43.52464 1.42584 7581 ft 277 kts 212°
2026-04-22 17:41 43.51050 1.40819 8774 ft 276 kts 236°
2026-04-22 17:42 43.50273 1.38409 9907 ft 280 kts 259°
2026-04-22 17:42 43.50309 1.35731 10931 ft 284 kts 283°
2026-04-22 17:42 43.51188 1.33283 11946 ft 291 kts 308°
2026-04-22 17:42 43.52795 1.31560 12968 ft 300 kts 333°
2026-04-22 17:43 43.54865 1.30951 13837 ft 317 kts 354°
2026-04-22 17:43 43.57148 1.30777 14167 ft 341 kts 353°
2026-04-22 17:43 43.59566 1.30585 14753 ft 353 kts 354°
2026-04-22 17:43 43.62044 1.30520 15543 ft 359 kts 357°
2026-04-22 17:44 43.64556 1.30617 16384 ft 363 kts 359°
2026-04-22 17:44 43.67093 1.30832 17237 ft 366 kts 359°
2026-04-22 17:44 43.69641 1.30799 18091 ft 368 kts 354°
2026-04-22 17:44 43.72210 1.30633 18899 ft 371 kts 353°
2026-04-22 17:45 43.73956 1.30470 19431 ft 373 kts 352°
2026-04-22 17:45 43.77407 1.30087 20453 ft 378 kts 352°
2026-04-22 17:45 43.80046 1.29777 21199 ft 382 kts 352°
2026-04-22 17:45 43.82746 1.29462 21941 ft 387 kts 352°
2026-04-22 17:46 43.85443 1.29159 22667 ft 391 kts 352°
2026-04-22 17:46 43.88163 1.28866 23382 ft 395 kts 352°
2026-04-22 17:46 43.90922 1.28575 24001 ft 399 kts 352°
2026-04-22 17:46 43.93695 1.28285 24595 ft 401 kts 352°
2026-04-22 17:47 43.96489 1.27993 25197 ft 404 kts 352°
2026-04-22 17:47 43.99300 1.27697 25779 ft 406 kts 352°
2026-04-22 17:47 44.02122 1.27402 26351 ft 408 kts 352°
2026-04-22 17:47 44.04966 1.27103 26925 ft 411 kts 352°
2026-04-22 17:48 44.06855 1.26902 27288 ft 412 kts 352°
2026-04-22 17:48 44.10694 1.26493 28033 ft 415 kts 352°
2026-04-22 17:48 44.13580 1.26186 28588 ft 417 kts 352°
2026-04-22 17:48 44.16488 1.25878 29128 ft 420 kts 352°
2026-04-22 17:49 44.19409 1.25568 29663 ft 423 kts 352°
2026-04-22 17:49 44.22348 1.25254 30182 ft 425 kts 352°
2026-04-22 17:49 44.25307 1.24939 30616 ft 428 kts 352°
2026-04-22 17:49 44.28283 1.24624 31035 ft 430 kts 352°
2026-04-22 17:50 44.31274 1.24311 31444 ft 432 kts 352°
2026-04-22 17:50 44.34282 1.23998 31882 ft 433 kts 352°
2026-04-22 17:50 44.37278 1.23684 32449 ft 431 kts 352°
2026-04-22 17:50 44.40265 1.23367 33044 ft 429 kts 352°
2026-04-22 17:51 44.43232 1.23048 33671 ft 427 kts 351°
2026-04-22 17:51 44.46167 1.22605 34220 ft 422 kts 346°
2026-04-22 17:51 44.49001 1.21619 34731 ft 418 kts 341°
2026-04-22 17:51 44.51797 1.20513 35253 ft 417 kts 341°
2026-04-22 17:52 44.54584 1.19422 35759 ft 415 kts 341°
2026-04-22 17:52 44.57366 1.18340 36251 ft 414 kts 341°
2026-04-22 17:52 44.60136 1.17265 36745 ft 413 kts 341°
2026-04-22 17:52 44.62901 1.16192 37248 ft 411 kts 342°
2026-04-22 17:53 44.65656 1.15125 37727 ft 410 kts 342°
2026-04-22 17:53 44.68400 1.14054 38198 ft 409 kts 341°
2026-04-22 17:53 44.71170 1.12967 38671 ft 408 kts 341°
2026-04-22 17:53 44.73904 1.11893 38929 ft 408 kts 341°
2026-04-22 17:54 44.76639 1.10818 38995 ft 409 kts 341°
2026-04-22 17:54 44.82116 1.08660 38999 ft 409 kts 341°
2026-04-22 17:55 44.86668 1.06873 38997 ft 409 kts 341°
2026-04-22 17:55 44.93071 1.04353 39000 ft 409 kts 341°
2026-04-22 17:56 44.98543 1.02185 39000 ft 409 kts 341°
2026-04-22 17:56 45.04022 1.00009 39009 ft 409 kts 341°
2026-04-22 17:57 45.09505 0.97831 39016 ft 410 kts 341°
2026-04-22 17:57 45.15029 0.95793 39020 ft 411 kts 344°
2026-04-22 17:58 45.20642 0.94168 39032 ft 412 kts 346°
2026-04-22 17:58 45.26271 0.92618 39024 ft 412 kts 345°
2026-04-22 17:59 45.31880 0.90989 39023 ft 411 kts 345°
2026-04-22 17:59 45.37481 0.89306 39024 ft 411 kts 345°
2026-04-22 18:00 45.42173 0.87898 39032 ft 411 kts 345°
2026-04-22 18:00 45.48682 0.85949 39037 ft 411 kts 345°
2026-04-22 18:01 45.54316 0.84258 39047 ft 411 kts 345°
2026-04-22 18:01 45.59871 0.82587 39054 ft 411 kts 345°
2026-04-22 18:02 45.65494 0.80889 39050 ft 410 kts 345°
2026-04-22 18:02 45.71078 0.79202 39051 ft 410 kts 345°
2026-04-22 18:03 45.76659 0.77504 39036 ft 410 kts 344°
2026-04-22 18:03 45.82240 0.75807 39041 ft 410 kts 344°
2026-04-22 18:04 45.86886 0.74401 39042 ft 411 kts 344°
2026-04-22 18:04 45.92481 0.72705 39040 ft 411 kts 344°
2026-04-22 18:05 45.98081 0.70998 39061 ft 411 kts 344°
2026-04-22 18:05 46.03679 0.69284 39070 ft 412 kts 344°
2026-04-22 18:06 46.09282 0.67574 39073 ft 412 kts 344°
2026-04-22 18:06 46.14886 0.65853 39075 ft 412 kts 344°
2026-04-22 18:07 46.20526 0.64110 39089 ft 412 kts 344°
2026-04-22 18:07 46.26132 0.62386 39091 ft 412 kts 344°
2026-04-22 18:08 46.31731 0.60656 39087 ft 411 kts 344°
2026-04-22 18:08 46.37328 0.58916 39098 ft 411 kts 344°
2026-04-22 18:09 46.42923 0.57185 39103 ft 411 kts 344°
2026-04-22 18:09 46.48513 0.55460 39101 ft 411 kts 344°
2026-04-22 18:10 46.54119 0.53831 39101 ft 413 kts 349°
2026-04-22 18:10 46.59910 0.54313 39110 ft 425 kts
2026-04-22 18:11 46.65676 0.56225 39112 ft 425 kts
2026-04-22 18:11 46.71447 0.58140 39111 ft 425 kts
2026-04-22 18:12 46.77218 0.60046 39111 ft 425 kts
2026-04-22 18:12 46.82987 0.61950 39112 ft 425 kts
2026-04-22 18:13 46.88759 0.63857 39118 ft 425 kts
2026-04-22 18:13 46.94532 0.65772 39119 ft 425 kts
2026-04-22 18:14 47.00302 0.67700 39135 ft 425 kts
2026-04-22 18:14 47.06125 0.69333 39135 ft 419 kts 359°
2026-04-22 18:15 47.11940 0.69926 39134 ft 419 kts 359°
2026-04-22 18:15 47.17758 0.70522 39152 ft 419 kts 359°
2026-04-22 18:16 47.23576 0.71129 39156 ft 419 kts 359°
2026-04-22 18:16 47.29389 0.71740 39155 ft 419 kts 359°
2026-04-22 18:17 47.35205 0.72345 39155 ft 419 kts 359°
2026-04-22 18:17 47.41020 0.72955 39160 ft 419 kts 359°
2026-04-22 18:18 47.46831 0.73577 39156 ft 419 kts 359°
2026-04-22 18:18 47.52577 0.75326 39151 ft 427 kts 13°
2026-04-22 18:19 47.58220 0.78104 39152 ft 427 kts 13°
2026-04-22 18:19 47.63864 0.80889 39158 ft 427 kts 13°
2026-04-22 18:20 47.69508 0.83675 39151 ft 427 kts 13°
2026-04-22 18:20 47.75149 0.86472 39171 ft 427 kts 13°
2026-04-22 18:21 47.80777 0.89262 39181 ft 426 kts 13°
2026-04-22 18:21 47.86407 0.92060 39173 ft 426 kts 13°
2026-04-22 18:22 47.92026 0.94892 39173 ft 426 kts 14°
2026-04-22 18:22 47.97679 0.97770 39169 ft 426 kts 14°
2026-04-22 18:23 48.03298 1.00623 39175 ft 427 kts 14°
2026-04-22 18:23 48.08922 1.03480 39171 ft 427 kts 14°
2026-04-22 18:24 48.17366 1.07775 39174 ft 428 kts 14°
2026-04-22 18:25 48.25817 1.12093 39181 ft 428 kts 14°
2026-04-22 18:25 48.31468 1.14967 39181 ft 429 kts 14°
2026-04-22 18:26 48.39950 1.19298 39185 ft 430 kts 14°
2026-04-22 18:26 48.45606 1.22213 39198 ft 430 kts 14°
2026-04-22 18:27 48.51268 1.25131 39200 ft 430 kts 14°
2026-04-22 18:27 48.56937 1.28052 39202 ft 431 kts 14°
2026-04-22 18:28 48.62623 1.30913 39221 ft 430 kts 13°
2026-04-22 18:28 48.68306 1.33757 39227 ft 430 kts 14°
2026-04-22 18:29 48.73976 1.36615 39232 ft 430 kts 14°
2026-04-22 18:29 48.79646 1.39490 39231 ft 429 kts 14°
2026-04-22 18:30 48.88179 1.43829 39231 ft 429 kts 14°
2026-04-22 18:31 48.93835 1.46747 39237 ft 431 kts 17°
2026-04-22 18:31 48.99013 1.51484 39231 ft 443 kts 36°
2026-04-22 18:32 49.03260 1.58381 39233 ft 448 kts 43°
2026-04-22 18:32 49.07400 1.65472 39244 ft 448 kts 44°
2026-04-22 18:33 49.11536 1.72582 39245 ft 448 kts 44°
2026-04-22 18:33 49.15664 1.79699 39260 ft 447 kts 44°
2026-04-22 18:34 49.19780 1.86806 39263 ft 446 kts 44°
2026-04-22 18:34 49.23873 1.93909 39264 ft 445 kts 44°
2026-04-22 18:35 49.27960 2.01011 39274 ft 444 kts 44°
2026-04-22 18:35 49.32042 2.08119 39266 ft 444 kts 44°
2026-04-22 18:36 49.36113 2.15222 39271 ft 443 kts 44°
2026-04-22 18:36 49.40179 2.22338 39267 ft 443 kts 45°
2026-04-22 18:37 49.43577 2.28300 39285 ft 443 kts 45°
2026-04-22 18:37 49.47625 2.35428 39276 ft 442 kts 45°
2026-04-22 18:38 49.51659 2.42563 39287 ft 442 kts 45°
2026-04-22 18:38 49.55906 2.49338 39278 ft 436 kts 34°
2026-04-22 18:39 49.63505 2.56892 39276 ft 433 kts 28°
2026-04-22 18:39 49.68610 2.61842 39283 ft 433 kts 28°
2026-04-22 18:40 49.73716 2.66808 39285 ft 434 kts 28°
2026-04-22 18:40 49.78822 2.71773 39299 ft 434 kts 29°
2026-04-22 18:41 49.83930 2.76764 39292 ft 434 kts 29°
2026-04-22 18:41 49.89034 2.81764 39298 ft 434 kts 29°
2026-04-22 18:42 49.94179 2.86817 39302 ft 434 kts 29°
2026-04-22 18:42 49.99286 2.91839 39307 ft 435 kts 29°
2026-04-22 18:43 50.04393 2.96870 39304 ft 435 kts 29°
2026-04-22 18:43 50.09500 3.01912 39304 ft 435 kts 29°
2026-04-22 18:44 50.14403 3.07487 39307 ft 437 kts 35°
2026-04-22 18:44 50.19133 3.13466 39310 ft 438 kts 37°
2026-04-22 18:45 50.23853 3.19495 39320 ft 438 kts 36°
2026-04-22 18:45 50.28587 3.25505 39333 ft 438 kts 37°
2026-04-22 18:46 50.33323 3.31508 39334 ft 438 kts 37°
2026-04-22 18:46 50.38056 3.37506 39337 ft 438 kts 37°
2026-04-22 18:47 50.42787 3.43524 39338 ft 438 kts 37°
2026-04-22 18:47 50.47770 3.48860 39452 ft 431 kts 27°
2026-04-22 18:48 50.52704 3.54238 39317 ft 434 kts 40°
2026-04-22 18:48 50.57206 3.60547 39312 ft 433 kts 38°
2026-04-22 18:49 50.61887 3.66541 39316 ft 434 kts 36°
2026-04-22 18:49 50.66638 3.72512 39328 ft 435 kts 37°
2026-04-22 18:50 50.71328 3.78542 39344 ft 435 kts 37°
2026-04-22 18:50 50.75998 3.84639 39350 ft 436 kts 38°
2026-04-22 18:51 50.80669 3.90755 39349 ft 436 kts 38°
2026-04-22 18:51 50.85343 3.96875 39349 ft 436 kts 38°
2026-04-22 18:52 50.90020 4.03010 39355 ft 437 kts 38°
2026-04-22 18:52 50.94691 4.09156 39356 ft 437 kts 38°
2026-04-22 18:53 50.99366 4.15318 39357 ft 437 kts 38°
2026-04-22 18:53 51.04031 4.21498 39369 ft 437 kts 38°
2026-04-22 18:54 51.08690 4.27677 39374 ft 436 kts 38°
2026-04-22 18:54 51.13349 4.33869 39375 ft 436 kts 38°
2026-04-22 18:55 51.18006 4.40063 39372 ft 436 kts 38°
2026-04-22 18:55 51.22658 4.46271 39371 ft 436 kts 38°
2026-04-22 18:56 51.27297 4.52507 39371 ft 436 kts 38°
2026-04-22 18:56 51.31936 4.58748 39370 ft 436 kts 38°
2026-04-22 18:57 51.36576 4.65004 39354 ft 436 kts 39°
2026-04-22 18:57 51.41213 4.71269 39369 ft 436 kts 39°
2026-04-22 18:58 51.45845 4.77541 39368 ft 436 kts 39°
2026-04-22 18:58 51.50470 4.83825 39373 ft 436 kts 39°
2026-04-22 18:59 51.55121 4.90163 39371 ft 436 kts 39°
2026-04-22 18:59 51.59743 4.96477 39371 ft 436 kts 39°
2026-04-22 19:00 51.64361 5.02816 39371 ft 436 kts 39°
2026-04-22 19:00 51.68581 5.08620 39377 ft 436 kts 39°
2026-04-22 19:01 51.73194 5.14976 39380 ft 436 kts 40°
2026-04-22 19:01 51.77807 5.21348 39387 ft 436 kts 40°
2026-04-22 19:02 51.82415 5.27732 39392 ft 436 kts 40°
2026-04-22 19:02 51.87022 5.34125 39394 ft 436 kts 40°
2026-04-22 19:03 51.91622 5.40528 39413 ft 436 kts 40°
2026-04-22 19:03 51.96220 5.46952 39409 ft 436 kts 40°
2026-04-22 19:04 52.00795 5.53382 39406 ft 435 kts 40°
2026-04-22 19:04 52.05364 5.59810 39403 ft 434 kts 40°
2026-04-22 19:05 52.09934 5.66239 39382 ft 434 kts 40°
2026-04-22 19:05 52.14492 5.72673 39379 ft 434 kts 40°
2026-04-22 19:06 52.19076 5.79160 39377 ft 433 kts 41°
2026-04-22 19:07 52.25890 5.88849 39385 ft 433 kts 41°
2026-04-22 19:07 52.30422 5.95325 39406 ft 433 kts 41°
2026-04-22 19:08 52.34952 6.01809 39409 ft 433 kts 41°
2026-04-22 19:08 52.39475 6.08296 39408 ft 432 kts 41°
2026-04-22 19:09 52.43987 6.14784 39412 ft 431 kts 41°
2026-04-22 19:09 52.47726 6.20184 39411 ft 431 kts 41°
2026-04-22 19:10 52.52979 6.27779 39411 ft 430 kts 42°
2026-04-22 19:10 52.57463 6.34292 39410 ft 430 kts 42°
2026-04-22 19:11 52.61218 6.39766 39407 ft 430 kts 42°
2026-04-22 19:11 52.65694 6.46304 39412 ft 430 kts 42°
2026-04-22 19:12 52.70169 6.52842 39416 ft 430 kts 42°
2026-04-22 19:12 52.74638 6.59389 39425 ft 430 kts 42°
2026-04-22 19:13 52.79099 6.65944 39428 ft 429 kts 43°
2026-04-22 19:13 52.83547 6.72517 39415 ft 429 kts 43°
2026-04-22 19:14 52.87989 6.79102 39418 ft 428 kts 43°
2026-04-22 19:14 52.92429 6.85686 39418 ft 429 kts 43°
2026-04-22 19:15 52.96867 6.92291 39416 ft 429 kts 43°
2026-04-22 19:15 53.01300 6.98905 39418 ft 429 kts 43°
2026-04-22 19:16 53.05730 7.05550 39418 ft 429 kts 43°
2026-04-22 19:16 53.10160 7.12204 39424 ft 429 kts 43°
2026-04-22 19:17 53.14586 7.18867 39430 ft 428 kts 44°
2026-04-22 19:17 53.19025 7.25571 39430 ft 428 kts 44°
2026-04-22 19:18 53.23432 7.32239 39428 ft 427 kts 44°
2026-04-22 19:18 53.27830 7.38904 39428 ft 427 kts 44°
2026-04-22 19:19 53.32220 7.45591 39427 ft 427 kts 44°
2026-04-22 19:19 53.36595 7.52300 39427 ft 426 kts 44°
2026-04-22 19:20 53.40972 7.59014 39430 ft 427 kts 44°
2026-04-22 19:20 53.45350 7.65729 39424 ft 427 kts 44°
2026-04-22 19:21 53.49724 7.72476 39417 ft 427 kts 45°
2026-04-22 19:21 53.54092 7.79232 39431 ft 426 kts 45°
2026-04-22 19:22 53.58448 7.85973 39436 ft 425 kts 45°
2026-04-22 19:22 53.62784 7.92709 39434 ft 424 kts 45°
2026-04-22 19:23 53.67104 7.99443 39432 ft 423 kts 45°
2026-04-22 19:23 53.71411 8.06195 39430 ft 422 kts 45°
2026-04-22 19:24 53.75709 8.12944 39424 ft 421 kts 45°
2026-04-22 19:24 53.79999 8.19689 39414 ft 421 kts 45°
2026-04-22 19:25 53.84305 8.26483 39416 ft 420 kts 45°
2026-04-22 19:25 53.88575 8.33242 39410 ft 420 kts 46°
2026-04-22 19:26 53.92842 8.40012 39425 ft 420 kts 46°
2026-04-22 19:26 53.97099 8.46788 39396 ft 419 kts 46°
2026-04-22 19:27 54.01350 8.53566 39397 ft 419 kts 46°
2026-04-22 19:27 54.05591 8.60357 39397 ft 418 kts 46°
2026-04-22 19:28 54.09823 8.67162 39398 ft 418 kts 46°
2026-04-22 19:28 54.14051 8.73975 39401 ft 418 kts 46°
2026-04-22 19:29 54.18277 8.80794 39373 ft 418 kts 46°
2026-04-22 19:29 54.22496 8.87631 39381 ft 418 kts 46°
2026-04-22 19:30 54.26001 8.93329 39379 ft 418 kts 46°
2026-04-22 19:30 54.30931 9.01349 39380 ft 418 kts 46°
2026-04-22 19:31 54.35142 9.08230 39382 ft 418 kts 46°
2026-04-22 19:31 54.39343 9.15135 39386 ft 419 kts 46°
2026-04-22 19:32 54.43543 9.22055 39366 ft 419 kts 46°
2026-04-22 19:32 54.47746 9.28989 39367 ft 419 kts 46°
2026-04-22 19:33 54.51973 9.35971 39361 ft 419 kts 47°
2026-04-22 19:33 54.56168 9.42925 39374 ft 419 kts 47°
2026-04-22 19:34 54.60358 9.49899 39376 ft 419 kts 47°
2026-04-22 19:34 54.64544 9.56888 39356 ft 419 kts 47°
2026-04-22 19:35 54.68542 9.64134 39272 ft 414 kts 59°
2026-04-22 19:35 54.69918 9.68465 39046 ft 410 kts 65°
2026-04-22 19:35 54.70769 9.71375 38859 ft 409 kts 65°
2026-04-22 19:35 54.72473 9.77253 38499 ft 408 kts 65°
2026-04-22 19:36 54.73740 9.81639 38217 ft 407 kts 65°
2026-04-22 19:36 54.75000 9.86005 37675 ft 405 kts 65°
2026-04-22 19:36 54.76255 9.90361 36998 ft 403 kts 66°
2026-04-22 19:36 54.77498 9.94681 36606 ft 401 kts 66°
2026-04-22 19:37 54.78744 9.99004 35947 ft 401 kts 66°
2026-04-22 19:37 54.79978 10.03299 35112 ft 397 kts 66°
2026-04-22 19:37 54.81204 10.07570 34142 ft 395 kts 67°
2026-04-22 19:37 54.82423 10.11819 32981 ft 394 kts 67°
2026-04-22 19:38 54.83645 10.16096 31746 ft 396 kts 67°
2026-04-22 19:38 54.84861 10.20365 30870 ft 394 kts 66°
2026-04-22 19:38 54.86076 10.24645 30205 ft 396 kts 66°
2026-04-22 19:38 54.87285 10.28919 29463 ft 394 kts 66°
2026-04-22 19:39 54.88485 10.33169 28746 ft 391 kts 66°
2026-04-22 19:39 54.89681 10.37395 28046 ft 388 kts 66°
2026-04-22 19:39 54.90866 10.41589 27366 ft 386 kts 66°
2026-04-22 19:39 54.92044 10.45759 26689 ft 383 kts 66°
2026-04-22 19:40 54.93216 10.49904 26040 ft 381 kts 65°
2026-04-22 19:40 54.94394 10.54086 25390 ft 379 kts 65°
2026-04-22 19:40 54.95547 10.58194 24773 ft 377 kts 65°
2026-04-22 19:40 54.96692 10.62279 24159 ft 375 kts 65°
2026-04-22 19:41 54.97826 10.66345 23501 ft 373 kts 65°
2026-04-22 19:41 54.98956 10.70405 22785 ft 372 kts 65°
2026-04-22 19:41 55.00080 10.74457 22090 ft 371 kts 65°
2026-04-22 19:41 55.01201 10.78497 21486 ft 368 kts 65°
2026-04-22 19:42 55.02302 10.82473 21286 ft 364 kts 65°
2026-04-22 19:42 55.03404 10.86457 21293 ft 365 kts 65°
2026-04-22 19:42 55.04505 10.90441 21298 ft 365 kts 64°
2026-04-22 19:42 55.05607 10.94436 21302 ft 365 kts 64°
2026-04-22 19:43 55.07430 11.01065 20931 ft 364 kts 64°
2026-04-22 19:43 55.08524 11.05040 20677 ft 363 kts 64°
2026-04-22 19:43 55.09614 11.09004 20428 ft 362 kts 64°
2026-04-22 19:44 55.10699 11.12956 20076 ft 360 kts 64°
2026-04-22 19:44 55.11793 11.16951 19630 ft 359 kts 64°
2026-04-22 19:44 55.12864 11.20878 19200 ft 357 kts 64°
2026-04-22 19:44 55.13928 11.24787 18776 ft 356 kts 64°
2026-04-22 19:45 55.14987 11.28691 18311 ft 355 kts 64°
2026-04-22 19:45 55.16042 11.32584 17824 ft 353 kts 63°
2026-04-22 19:45 55.17090 11.36451 17343 ft 351 kts 63°
2026-04-22 19:45 55.18131 11.40297 16878 ft 349 kts 63°
2026-04-22 19:46 55.19166 11.44126 16408 ft 347 kts 63°
2026-04-22 19:46 55.20196 11.47937 15953 ft 345 kts 63°
2026-04-22 19:46 55.21219 11.51730 15499 ft 344 kts 63°
2026-04-22 19:46 55.22234 11.55501 15044 ft 342 kts 63°
2026-04-22 19:47 55.23244 11.59263 14615 ft 340 kts 63°
2026-04-22 19:47 55.24248 11.63015 14187 ft 339 kts 62°
2026-04-22 19:47 55.25247 11.66753 13734 ft 338 kts 62°
2026-04-22 19:47 55.26240 11.70483 13252 ft 336 kts 62°
2026-04-22 19:48 55.27226 11.74181 12792 ft 334 kts 62°
2026-04-22 19:48 55.28206 11.77865 12322 ft 332 kts 62°
2026-04-22 19:48 55.29176 11.81522 11854 ft 328 kts 62°
2026-04-22 19:48 55.30125 11.85109 11417 ft 321 kts 61°
2026-04-22 19:49 55.31042 11.88585 10969 ft 306 kts 61°
2026-04-22 19:49 55.31916 11.91911 10540 ft 293 kts 60°
2026-04-22 19:49 55.32756 11.95103 10086 ft 284 kts 60°
2026-04-22 19:49 55.33581 11.98225 9557 ft 280 kts 60°
2026-04-22 19:50 55.34400 12.01318 9038 ft 278 kts 60°
2026-04-22 19:50 55.35218 12.04401 8521 ft 280 kts 60°
2026-04-22 19:50 55.36040 12.07519 8019 ft 280 kts 60°
2026-04-22 19:50 55.36843 12.10590 7511 ft 274 kts 60°
2026-04-22 19:51 55.37637 12.13623 7022 ft 272 kts 60°
2026-04-22 19:51 55.38426 12.16639 6519 ft 271 kts 60°
2026-04-22 19:51 55.39207 12.19631 5948 ft 265 kts 60°
2026-04-22 19:51 55.39973 12.22572 5384 ft 257 kts 60°
2026-04-22 19:52 55.40707 12.25406 4827 ft 252 kts 60°
2026-04-22 19:52 55.41419 12.28165 4392 ft 242 kts 60°
2026-04-22 19:52 55.42102 12.30805 4074 ft 234 kts 59°
2026-04-22 19:52 55.42778 12.33402 3779 ft 233 kts 59°
2026-04-22 19:53 55.43522 12.35910 3483 ft 226 kts 49°
2026-04-22 19:53 55.44575 12.37876 3176 ft 218 kts 35°
2026-04-22 19:53 55.45695 12.39584 3019 ft 208 kts 35°
2026-04-22 19:53 55.46777 12.41235 3022 ft 202 kts 35°
2026-04-22 19:54 55.47799 12.42802 2983 ft 189 kts 34°
2026-04-22 19:54 55.48773 12.44292 2771 ft 183 kts 34°
2026-04-22 19:54 55.49729 12.45756 2533 ft 180 kts 34°
2026-04-22 19:54 55.50629 12.47140 2303 ft 165 kts 34°
2026-04-22 19:55 55.51480 12.48445 2086 ft 160 kts 33°
2026-04-22 19:55 55.52317 12.49728 1869 ft 159 kts 33°
2026-04-22 19:55 55.53144 12.50997 1662 ft 154 kts 33°
2026-04-22 19:55 55.53883 12.52143 1456 ft 130 kts 33°
2026-04-22 19:56 55.54538 12.53149 1289 ft 121 kts 32°
2026-04-22 19:56 55.55159 12.54103 1118 ft 117 kts 32°
2026-04-22 19:56 55.55776 12.55050 956 ft 116 kts 32°
2026-04-22 19:56 55.56387 12.55987 797 ft 117 kts 33°
2026-04-22 19:57 55.57003 12.56935 620 ft 119 kts 34°
2026-04-22 19:57 55.57631 12.57902 472 ft 120 kts 36°
2026-04-22 19:57 55.58261 12.58873 310 ft 121 kts 36°
2026-04-22 19:57 55.58896 12.59846 155 ft 121 kts 36°
2026-04-22 19:58 55.59528 12.60824 33 ft 120 kts 34°
2026-04-22 19:58 55.60062 12.61646 20 ft 79 kts 41°
2026-04-22 19:58 55.60366 12.62118 17 ft 45 kts 41°
2026-04-22 19:58 55.60561 12.62313 19 ft 23 kts 18°
2026-04-22 19:59 55.60703 12.62367 18 ft 20 kts 10°
2026-04-22 20:00 55.61418 12.63372 17 ft 23 kts 41°
2026-04-22 20:00 55.61533 12.63550 18 ft 22 kts 41°
2026-04-22 20:01 55.61641 12.63718 17 ft 21 kts 41°
2026-04-22 20:01 55.61745 12.63879 17 ft 19 kts 41°
2026-04-22 20:01 55.61842 12.64029 17 ft 18 kts 41°
2026-04-22 20:01 55.61946 12.64134 17 ft 17 kts 24°
2026-04-22 20:02 55.62075 12.64240 19 ft 23 kts 25°
2026-04-22 20:02 55.62197 12.64344 16 ft 18 kts 25°
2026-04-22 20:02 55.62271 12.64496 17 ft 16 kts 66°
2026-04-22 20:02 55.62319 12.64688 17 ft 18 kts 66°
2026-04-22 20:03 55.62344 12.64868 19 ft 13 kts 115°
2026-04-22 20:03 55.62292 12.65028 18 ft 16 kts 122°
2026-04-22 20:03 55.62308 12.65195 17 ft 13 kts 26°
2026-04-22 20:03 55.62415 12.65201 18 ft 18 kts 359°
2026-04-22 20:04 55.62529 12.65197 17 ft 14 kts 359°
2026-04-22 20:04 55.62618 12.65198 18 ft 9 kts 12°
2026-04-22 20:04 55.62647 12.65262 17 ft 6 kts 71°
2026-04-22 20:04 55.62677 12.65304 17 ft 0 kts 13°
2026-04-22 20:05 55.62691 12.65311 17 ft 4 kts 17°
2026-04-22 20:05 55.62703 12.65318 17 ft 2 kts 17°
2026-04-22 20:05 55.62715 12.65324 17 ft 2 kts 17°
2026-04-22 20:05 55.62720 12.65327 17 ft 0 kts 16°